HB9FVK-10 Weather Reports


time (UTC)temp
F
wind
direction
speed
knots
gust
knots
rain 1hr
in
rain 24hr
in
rain mn
in
humidity
%
barometer
mb
20260507182101 58 12 3.5 5.2 0.00 0.00 0.00 63 1019.1
20260507181100 59 37 3.5 6.1 0.00 0.00 0.00 61 1019.1
20260507180059 60 29 5.2 7.8 0.00 0.00 0.00 60 1018.9
20260507175057 60 29 5.2 7.8 0.00 0.00 0.00 59 1018.8
20260507174056 60 34 5.2 7.8 0.00 0.00 0.00 58 1018.8
20260507173116 60 25 6.1 8.7 0.00 0.00 0.00 57 1018.8
20260507172054 61 25 7.8 11.3 0.00 0.00 0.00 56 1018.7
20260507171052 61 20 6.1 12.2 0.00 0.00 0.00 55 1018.6
20260507170052 61 36 5.2 8.7 0.00 0.00 0.00 56 1018.5
20260507165051 61 35 4.3 5.2 0.00 0.00 0.00 56 1018.5
20260507164049 61 40 4.3 7.8 0.00 0.00 0.00 55 1018.5
20260507163048 62 43 5.2 9.6 0.00 0.00 0.00 54 1018.5
20260507162047 63 343 3.5 6.1 0.00 0.00 0.00 54 1018.4
20260507161045 63 18 5.2 7.8 0.00 0.00 0.00 55 1018.5
20260507160044 61 0 3.5 7.0 0.00 0.00 0.00 57 1018.4
20260507155103 61 3 4.3 7.0 0.00 0.00 0.00 58 1018.5
20260507154042 62 349 4.3 7.0 0.00 0.00 0.00 55 1018.4
20260507153042 61 30 2.6 4.3 0.00 0.00 0.00 55 1018.4
20260507152040 61 31 3.5 5.2 0.00 0.00 0.00 57 1018.4
20260507151058 62 358 4.3 5.2 0.00 0.00 0.00 57 1018.6
20260507150037 62 15 6.1 8.7 0.00 0.00 0.00 57 1018.5
20260507145056 61 34 6.1 11.3 0.00 0.00 0.00 59 1018.5
20260507144034 62 336 1.7 6.1 0.00 0.00 0.00 58 1018.5
20260507143034 61 12 4.3 7.8 0.00 0.00 0.00 58 1018.5
20260507142032 61 329 3.5 7.0 0.00 0.00 0.00 59 1018.6
20260507141031 60 218 1.7 3.5 0.00 0.00 0.00 60 1018.5
20260507140030 60 48 2.6 5.2 0.00 0.00 0.00 62 1018.7
20260507135109 58 44 2.6 4.3 0.00 0.00 0.00 65 1018.8
20260507134028 57 67 4.3 6.1 0.00 0.00 0.00 68 1018.9
20260507133026 57 48 4.3 6.1 0.00 0.00 0.00 72 1019.0
20260507132046 56 50 5.2 7.8 0.00 0.00 0.00 76 1019.1
20260507131104 54 47 3.5 5.2 0.00 0.00 0.00 85 1019.2
20260507130023 57 330 5.2 13.0 0.00 0.00 0.00 76 1019.2
20260507125022 59 335 3.5 7.8 0.00 0.00 0.00 64 1019.0
20260507124020 59 25 4.3 7.0 0.00 0.00 0.00 63 1018.9
20260507123019 0 0.0 0.0 0.00 0.00 0.00 1018.9
20260507122039 0 0.0 0.0 0.00 0.00 0.00 1018.8
20260507121017 0 0.0 0.0 0.00 0.00 0.00 1018.9
20260507120116 0 0.0 0.0 0.00 0.00 0.00 1019.0
20260507115115 0 0.0 0.0 0.00 0.00 0.00 1019.0
20260507114113 0 0.0 0.0 0.00 0.00 0.00 1019.0
20260507113112 59 56 7.0 9.6 0.00 0.00 0.00 67 1019.2
20260507112111 59 227 1.7 3.5 0.00 0.00 0.00 63 1019.1
20260507111110 59 194 2.6 5.2 0.00 0.00 0.00 61 1019.2
20260507110109 60 179 5.2 6.1 0.00 0.00 0.00 61 1019.1
20260507105128 58 224 2.6 5.2 0.00 0.00 0.00 63 1019.3
20260507104107 57 35 2.6 2.6 0.00 0.00 0.00 66 1019.3
20260507103105 58 205 3.5 7.0 0.00 0.00 0.00 67 1019.3
20260507102105 57 199 2.6 3.5 0.00 0.00 0.00 71 1019.4
20260507101103 56 203 2.6 7.0 0.00 0.00 0.00 71 1019.4
20260507095100 56 19 2.6 5.2 0.00 0.00 0.00 75 1019.5
20260507094120 55 223 4.3 6.1 0.00 0.00 0.00 75 1019.5
20260507093058 54 169 1.7 4.3 0.00 0.00 0.00 78 1019.5
20260507092057 54 230 2.6 4.3 0.00 0.00 0.00 80 1019.6
20260507091056 52 235 1.7 2.6 0.00 0.00 0.00 86 1019.5
20260507090055 52 247 3.5 7.0 0.00 0.00 0.00 84 1019.6
20260507085053 52 298 2.6 5.2 0.00 0.00 0.00 85 1019.5
20260507084052 51 321 2.6 5.2 0.00 0.00 0.00 88 1019.5
20260507083051 51 0.0 3.5 0.00 0.00 0.00 87 1019.5
20260507082051 51 238 1.7 3.5 0.00 0.00 0.00 87 1019.5
20260507081049 51 90 2.6 3.5 0.00 0.00 0.00 91 1019.5
20260507080048 50 126 3.5 5.2 0.00 0.00 0.00 92 1019.4
20260507075046 50 151 2.6 3.5 0.00 0.00 0.00 93 1019.5
20260507074045 0 0.0 0.0 0.00 0.00 0.00 1019.4
20260507073044 0 0.0 0.0 0.00 0.00 0.00 1019.3
20260507072103 0 0.0 0.0 0.00 0.00 0.00 1019.2
20260507071041 0 0.0 0.0 0.00 0.00 0.00 1019.3
20260507070101 0 0.0 0.0 0.00 0.00 0.00 1019.2
20260507065039 0 0.0 0.0 0.00 0.00 0.00 1019.1
20260507064038 48 125 0.9 1.7 0.00 0.00 0.00 95 1019.1
20260507063057 48 131 1.7 3.5 0.00 0.00 0.00 95 1018.9
20260507062037 48 154 1.7 2.6 0.00 0.00 0.00 96 1018.9
20260507061035 48 122 1.7 3.5 0.00 0.00 0.00 95 1018.8
20260507060034 48 162 2.6 4.3 0.00 0.00 0.00 95 1018.7
20260507055033 47 129 4.3 4.3 0.00 0.00 0.00 96 1018.7
20260507054031 47 153 2.6 4.3 0.00 0.00 0.00 96 1018.5
20260507053030 47 147 2.6 4.3 0.00 0.00 0.00 97 1018.4
20260507052030 47 44 1.7 3.5 0.00 0.00 0.00 97 1018.3
20260507051027 47 158 2.6 3.5 0.00 0.00 0.00 97 1018.3
20260507050027 47 146 1.7 2.6 0.00 0.00 0.00 97 1018.3
20260507045026 47 112 2.6 4.3 0.00 0.00 0.00 97 1018.1
20260507044044 46 115 2.6 2.6 0.00 0.00 0.00 97 1017.9
20260507043023 46 154 2.6 3.5 0.00 0.00 0.00 97 1018.0
20260507042022 46 132 2.6 4.3 0.00 0.00 0.00 98 1017.9
20260507041020 46 131 3.5 3.5 0.00 0.00 0.00 98 1017.8
20260507040020 46 131 3.5 3.5 0.00 0.00 0.00 98 1017.7
20260507035018 46 122 2.6 3.5 0.00 0.00 0.00 98 1017.7
20260507034017 46 95 2.6 4.3 0.00 0.00 0.00 98 1017.6
20260507033016 46 134 2.6 3.5 0.00 0.00 0.00 97 1017.5
20260507032115 46 129 2.6 3.5 0.00 0.00 0.00 97 1017.6
20260507031114 46 117 1.7 3.5 0.00 0.00 0.00 97 1017.5
20260507030113 46 138 1.7 3.5 0.00 0.00 0.00 98 1017.5
20260507025231 45 106 1.7 3.5 0.00 0.00 0.00 98 1017.5
20260507024110 45 94 0.9 2.6 0.00 0.00 0.00 98 1017.5
20260507023109 45 159 2.6 3.5 0.00 0.00 0.00 98 1017.4
20260507022108 45 89 1.7 2.6 0.00 0.00 0.00 97 1017.3
20260507021107 45 76 1.7 3.5 0.00 0.00 0.00 97 1017.3
20260507020126 0 0.0 0.0 0.00 0.00 0.00 1017.4
20260507015124 0 0.0 0.0 0.00 0.00 0.00 1017.3
20260507014102 44 327 1.7 2.6 0.00 0.00 0.00 97 1017.2
20260507013102 44 97 3.5 5.2 0.00 0.00 0.00 97 1017.2
20260507012100 44 128 0.9 2.6 0.00 0.00 0.00 97 1016.9
20260507011100 44 111 0.0 3.5 0.00 0.00 0.00 97 1017.0
20260507010058 44 140 1.7 2.6 0.00 0.00 0.00 97 1016.9
20260507005057 44 122 1.7 3.5 0.00 0.00 0.00 97 1017.0
20260507004056 44 124 1.7 3.5 0.00 0.00 0.00 97 1016.9
20260507003054 44 147 2.6 3.5 0.00 0.00 0.00 97 1016.9
20260507002134 44 88 0.9 1.7 0.00 0.00 0.00 97 1016.9
20260507001052 43 144 1.7 5.2 0.00 0.00 0.00 97 1016.9
20260507000112 43 142 3.5 5.2 0.00 0.00 0.00 97 1017.0
20260506235051 43 148 3.5 5.2 0.00 0.00 0.00 97 1017.0
20260506234129 43 142 3.5 5.2 0.00 0.00 0.00 97 1017.1
20260506233047 43 148 4.3 5.2 0.00 0.00 0.00 97 1017.0
20260506232046 43 140 2.6 4.3 0.00 0.00 0.00 97 1016.9
20260506231045 43 151 2.6 2.6 0.00 0.00 0.00 97 1016.8
20260506230044 43 152 3.5 3.5 0.00 0.00 0.00 97 1016.7
20260506225043 43 126 2.6 2.6 0.00 0.00 0.00 97 1016.7
20260506224042 43 150 2.6 2.6 0.00 0.00 0.00 97 1016.8
20260506223040 43 151 2.6 2.6 0.00 0.00 0.00 97 1016.7
20260506222039 44 151 2.6 3.5 0.00 0.00 0.00 97 1016.7
20260506221038 44 122 2.6 3.5 0.00 0.00 0.00 96 1016.6
20260506220036 44 86 1.7 2.6 0.00 0.00 0.00 96 1016.7
20260506215035 44 88 0.9 2.6 0.00 0.00 0.00 96 1016.6
20260506214035 45 46 0.9 2.6 0.00 0.00 0.00 95 1016.5
20260506213053 45 163 1.7 3.5 0.00 0.00 0.00 95 1016.5
20260506212032 45 161 4.3 7.0 0.00 0.00 0.00 95 1016.6
20260506211031 45 154 4.3 5.2 0.00 0.00 0.00 96 1016.4
20260506210030 45 149 4.3 5.2 0.00 0.00 0.00 96 1016.2
20260506205029 45 123 2.6 3.5 0.00 0.00 0.00 95 1016.3
20260506204027 45 141 4.3 5.2 0.00 0.00 0.00 95 1016.4
20260506203026 46 144 4.3 6.1 0.00 0.00 0.00 95 1016.3
20260506202025 46 157 5.2 7.0 0.00 0.00 0.00 95 1016.0
20260506201024 46 163 4.3 6.1 0.00 0.00 0.00 95 1015.9
20260506200022 46 131 3.5 4.3 0.00 0.00 0.00 94 1015.8
20260506195021 46 149 3.5 4.3 0.00 0.00 0.00 94 1015.8
20260506194019 47 115 2.6 4.3 0.00 0.00 0.00 93 1015.4
20260506193018 47 153 2.6 4.3 0.00 0.00 0.00 92 1015.3
20260506192037 48 179 3.5 6.1 0.00 0.00 0.00 92 1015.3
20260506191016 48 164 4.3 5.2 0.00 0.00 0.00 92 1015.3
20260506190116 48 164 3.5 4.3 0.00 0.00 0.00 91 1015.2
20260506185114 49 159 3.5 4.3 0.00 0.00 0.00 90 1015.3
20260506184113 49 165 2.6 3.5 0.00 0.00 0.00 89 1015.0
20260506183152 49 164 2.6 4.3 0.00 0.00 0.00 89 1014.8